FW3743 Weather Reports


time (UTC)temp
C
wind
direction
speed
KPH
gust
KPH
rain 1hr
cm
rain 24hr
cm
rain mn
cm
humidity
%
barometer
mb
20260508215436 13 0.0 0.0 0.00 0.20 0.20 50 1011.3
20260508214513 13 0.0 0.0 0.00 0.20 0.20 48 1011.5
20260508213456 13 286 0.0 1.6 0.00 0.20 0.20 50 1011.4
20260508212433 13 0.0 0.0 0.00 0.20 0.20 52 1011.4
20260508211436 13 286 0.0 1.6 0.00 0.20 0.20 52 1011.2
20260508210433 12 39 0.0 8.0 0.00 0.20 0.20 52 1011.4
20260508205436 13 336 0.0 3.2 0.00 0.20 0.20 54 1011.5
20260508204513 11 0.0 0.0 0.00 0.20 0.20 56 1011.7
20260508203436 12 0.0 0.0 0.00 0.20 0.20 56 1011.5
20260508202453 13 0.0 0.0 0.00 0.20 0.20 58 1011.7
20260508201436 12 0.0 0.0 0.00 0.20 0.20 60 1011.6
20260508200433 11 0.0 0.0 0.00 0.20 0.20 60 1011.9
20260508195436 11 0.0 0.0 0.00 0.20 0.20 58 1011.9
20260508194432 12 341 3.2 11.3 0.00 0.20 0.20 57 1012.2
20260508193437 12 0.0 0.0 0.00 0.20 0.20 59 1012.0
20260508192433 12 0.0 0.0 0.00 0.20 0.20 62 1012.1
20260508191436 11 0.0 0.0 0.00 0.20 0.20 64 1012.2
20260508190432 11 0.0 0.0 0.00 0.20 0.20 66 1012.3
20260508185436 12 0.0 0.0 0.00 0.20 0.20 67 1012.2
20260508184433 11 0.0 0.0 0.00 0.20 0.20 68 1012.4
20260508183436 11 354 0.0 1.6 0.00 0.20 0.20 67 1012.6
20260508182433 11 320 0.0 3.2 0.00 0.20 0.20 68 1012.6
20260508181456 10 275 0.0 11.3 0.00 0.20 0.20 68 1012.6
20260508180433 11 287 0.0 1.6 0.00 0.20 0.20 71 1012.8
20260508175436 10 309 3.2 17.7 0.00 0.20 0.20 74 1012.4
20260508174452 10 0.0 0.0 0.00 0.20 0.20 74 1012.8
20260508173436 9 290 0.0 12.9 0.00 0.20 0.20 73 1012.6
20260508172453 9 0.0 0.0 0.00 0.20 0.20 75 1012.9
20260508171436 10 0.0 0.0 0.00 0.20 0.20 76 1012.8
20260508170453 8 0.0 0.0 0.00 0.20 0.20 76 1013.1
20260508165436 8 0.0 0.0 0.00 0.20 0.20 80 1013.0
20260508164453 10 0.0 0.0 0.00 0.20 0.20 81 1013.2
20260508163536 8 0.0 0.0 0.00 0.20 0.20 84 1012.9
20260508162433 8 0.0 0.0 0.00 0.20 0.20 92 1013.3
20260508161436 7 0.0 0.0 0.03 0.20 0.20 95 1013.1
20260508160433 6 0.0 0.0 0.03 0.20 0.20 97 1013.4
20260508155456 6 0.0 0.0 0.03 0.20 0.20 98 1013.4
20260508154453 6 0.0 0.0 0.05 0.20 0.20 97 1013.5
20260508153436 6 0.0 0.0 0.05 0.18 0.18 96 1013.2
20260508152432 6 0.0 0.0 0.05 0.18 0.18 96 1013.5
20260508151436 6 310 0.0 11.3 0.00 0.15 0.15 96 1013.3
20260508150433 7 0.0 0.0 0.05 0.15 0.15 96 1013.3
20260508145436 6 0.0 0.0 0.08 0.15 0.15 96 1013.1
20260508144432 6 0.0 0.0 0.05 0.13 0.13 97 1013.4
20260508143436 6 0.0 0.0 0.05 0.13 0.13 97 1013.1
20260508142432 6 0.0 0.0 0.05 0.13 0.13 96 1013.2
20260508141456 6 0.0 0.0 0.05 0.13 0.13 95 1013.2
20260508140513 7 0.0 0.0 0.00 0.08 0.08 93 1013.1
20260508135436 7 0.0 0.0 0.00 0.08 0.08 91 1012.8
20260508134452 7 0.0 0.0 0.00 0.08 0.08 88 1012.8
20260508133456 7 0.0 0.0 0.00 0.08 0.08 88 1012.7
20260508132432 7 0.0 0.0 0.00 0.08 0.08 87 1013.0
20260508131456 7 0.0 0.0 0.00 0.08 0.08 86 1012.6
20260508130453 7 0.0 0.0 0.00 0.08 0.08 84 1012.7
20260508125436 7 0.0 0.0 0.00 0.08 0.08 87 1012.6
20260508124432 8 0.0 0.0 0.00 0.08 0.08 87 1012.5
20260508123436 8 0.0 0.0 0.00 0.08 0.08 89 1012.0
20260508122433 7 0.0 0.0 0.00 0.08 0.08 90 1012.4
20260508121436 7 0.0 0.0 0.00 0.08 0.08 91 1012.3
20260508120432 8 0.0 0.0 0.00 0.08 0.08 91 1012.3
20260508115436 7 0.0 0.0 0.00 0.08 0.08 92 1012.1
20260508114452 7 0.0 0.0 0.00 0.08 0.08 96 1012.3
20260508113436 5 0.0 0.0 0.00 0.08 0.08 99 1012.3
20260508112453 5 0.0 0.0 0.00 0.08 0.08 99 1012.6
20260508111436 5 0.0 0.0 0.00 0.08 0.08 99 1012.3
20260508110432 5 0.0 0.0 0.00 0.08 0.08 99 1012.7
20260508105436 5 0.0 0.0 0.00 0.08 0.08 99 1012.6
20260508104432 4 0.0 0.0 0.00 0.08 0.08 99 1011.7
20260508103436 4 0.0 0.0 0.00 0.08 0.08 99 1012.3
20260508102433 3 0.0 0.0 0.00 0.08 0.08 99 1011.4
20260508101436 3 0.0 0.0 0.00 0.08 0.08 99 1012.2
20260508100432 3 0.0 0.0 0.00 0.08 0.08 99 1011.6
20260508095436 2 0.0 0.0 0.00 0.08 0.08 99 1012.4
20260508094433 2 0.0 0.0 0.00 0.08 0.08 99 1011.3
20260508093436 2 0.0 0.0 0.00 0.08 0.08 99 1012.1
20260508092432 2 0.0 0.0 0.00 0.08 0.08 99 1011.1
20260508091436 3 0.0 0.0 0.00 0.08 0.08 99 1012.0
20260508090432 3 0.0 0.0 0.00 0.08 0.08 99 1011.1
20260508085437 3 0.0 0.0 0.00 0.08 0.08 99 1011.9
20260508084452 3 0.0 0.0 0.00 0.08 0.08 99 1011.1
20260508083436 3 0.0 0.0 0.00 0.08 0.08 99 1011.9
20260508082432 4 0.0 0.0 0.00 0.08 0.08 99 1011.0
20260508081436 4 0.0 0.0 0.00 0.08 0.08 99 1011.9
20260508080432 5 0.0 0.0 0.00 0.08 0.08 99 1011.2
20260508075436 5 0.0 0.0 0.00 0.08 0.08 99 1012.0
20260508074432 5 0.0 0.0 0.00 0.08 0.08 99 1011.2
20260508073436 5 0.0 0.0 0.00 0.08 0.08 99 1012.0
20260508072432 5 0.0 0.0 0.00 0.08 0.08 99 1011.3
20260508071456 5 0.0 0.0 0.03 0.08 0.08 98 1012.0
20260508070432 5 0.0 0.0 0.08 0.08 0.08 97 1011.3
20260508065436 5 0.0 0.0 0.08 0.08 0.08 97 1012.1
20260508064433 5 0.0 0.0 0.08 0.08 0.08 96 1011.4
20260508063456 5 0.0 0.0 0.08 0.08 0.08 95 1012.1
20260508062432 5 0.0 0.0 0.08 0.08 0.08 92 1011.5
20260508061456 5 305 0.0 16.1 0.03 0.03 0.03 88 1012.1
20260508060432 6 0.0 0.0 0.00 0.00 0.00 82 1011.3
20260508055436 6 0.0 0.0 0.00 0.00 0.00 79 1011.8
20260508054432 6 0.0 0.0 0.00 0.00 0.00 77 1010.7
20260508053436 6 0.0 0.0 0.00 0.00 0.00 76 1011.9
20260508052432 6 0.0 0.0 0.00 0.00 0.00 76 1010.9
20260508051436 7 0.0 0.0 0.00 0.00 0.00 75 1011.7
20260508050432 6 0.0 0.0 0.00 0.00 0.00 74 1010.7
20260508045436 6 0.0 0.0 0.00 0.00 0.00 75 1011.8
20260508044452 6 0.0 0.0 0.00 0.00 0.00 75 1010.8
20260508043436 6 0.0 0.0 0.00 0.00 0.00 74 1011.7
20260508042432 6 0.0 0.0 0.00 0.00 0.00 74 1010.7
20260508041436 6 0.0 0.0 0.00 0.00 0.00 74 1011.4
20260508040433 6 0.0 0.0 0.00 0.00 0.00 78 1010.7
20260508035435 6 0.0 0.0 0.00 0.00 0.00 80 1011.5
20260508034434 5 0.0 0.0 0.00 0.00 0.00 82 1011.8
20260508033435 4 0.0 0.0 0.00 0.00 0.00 83 1011.3
20260508032434 4 0.0 0.0 0.00 0.00 0.00 81 1011.8
20260508031435 5 0.0 0.0 0.00 0.00 0.00 80 1011.3
20260508030434 5 0.0 0.0 0.00 0.00 0.00 79 1011.5
20260508025435 5 0.0 0.0 0.00 0.00 0.00 79 1011.1
20260508024434 5 0.0 0.0 0.00 0.00 0.00 76 1011.3
20260508023456 6 0.0 0.0 0.00 0.00 0.00 73 1010.9
20260508022434 6 0.0 0.0 0.00 0.00 0.00 71 1011.4
20260508021435 7 0.0 0.0 0.00 0.00 0.00 67 1010.9
20260508020434 7 0.0 0.0 0.00 0.00 0.00 63 1011.6
20260508015456 7 0.0 0.0 0.00 0.00 0.00 62 1011.1
20260508014434 8 0.0 0.0 0.00 0.00 0.00 60 1011.7
20260508013435 8 0.0 0.0 0.00 0.00 0.00 59 1011.3
20260508012434 8 0.0 0.0 0.00 0.00 0.00 58 1011.5
20260508011516 8 0.0 0.0 0.00 0.00 0.00 56 1011.0
20260508010434 8 0.0 0.0 0.00 0.00 0.00 56 1011.4
20260508005436 9 0.0 0.0 0.00 0.00 0.00 55 1011.0
20260508004434 9 0.0 0.0 0.00 0.00 0.00 54 1011.2
20260508003435 9 0.0 0.0 0.00 0.00 0.00 52 1010.8
20260508002434 9 0.0 0.0 0.00 0.00 0.00 52 1011.0
20260508001435 9 0.0 0.0 0.00 0.00 0.00 52 1010.5
20260508000434 10 0.0 0.0 0.00 0.00 0.00 51 1010.9
20260507235435 10 0.0 0.0 0.00 0.00 0.00 50 1010.7
20260507234434 10 0.0 0.0 0.00 0.00 0.00 49 1010.9
20260507233436 10 0.0 0.0 0.00 0.00 0.00 49 1010.5
20260507232434 10 0.0 0.0 0.00 0.00 0.00 48 1010.8
20260507231456 10 0.0 0.0 0.00 0.00 0.00 49 1010.4
20260507230514 10 0.0 0.0 0.00 0.00 0.00 46 1011.0
20260507225436 10 0.0 0.0 0.00 0.00 0.00 46 1010.4
20260507224434 11 0.0 0.0 0.00 0.00 0.00 46 1010.8
20260507223435 11 0.0 0.0 0.00 0.00 0.00 43 1010.4
20260507222434 11 337 0.0 1.6 0.00 0.00 0.00 44 1010.7
20260507221436 12 92 0.0 8.0 0.00 0.00 0.00 42 1010.3
20260507220434 12 0.0 0.0 0.00 0.00 0.00 41 1010.7